Time,TemperatureF,DewpointF,PressureIn,WindDirection,WindDirectionDegrees,WindSpeedMPH,WindSpeedGustMPH,Humidity,HourlyPrecipIn,Conditions,Clouds,dailyrainin,SoftwareType,DateUTC
2013-01-25 00:03:00,3.0,-13.0,30.05,WNW,290,11.0,27.0,47,0.00,,,0.00,,2013-01-25 05:03:00,
2013-01-25 00:12:00,3.0,-12.0,30.04,West,265,13.0,24.0,48,0.00,,,0.00,,2013-01-25 05:12:00,
2013-01-25 00:22:00,3.0,-12.0,30.04,West,265,13.0,24.0,48,0.00,,,0.00,,2013-01-25 05:22:00,
2013-01-25 00:32:00,3.0,-13.0,30.04,WNW,303,16.0,29.0,47,0.00,,,0.00,,2013-01-25 05:32:00,
2013-01-25 00:43:00,3.0,-13.0,30.04,WNW,303,16.0,29.0,47,0.00,,,0.00,,2013-01-25 05:43:00,
2013-01-25 00:52:00,3.0,-12.0,30.04,WNW,283,16.0,27.0,48,0.00,,,0.00,,2013-01-25 05:52:00,
2013-01-25 01:02:00,3.0,-11.0,30.04,WNW,288,15.0,22.0,50,0.00,,,0.00,,2013-01-25 06:02:00,
2013-01-25 01:11:00,3.0,-11.0,30.04,WNW,288,15.0,22.0,50,0.00,,,0.00,,2013-01-25 06:11:00,
2013-01-25 01:21:00,3.0,-11.0,30.04,WNW,289,13.0,26.0,50,0.00,,,0.00,,2013-01-25 06:21:00,
2013-01-25 01:32:00,3.0,-11.0,30.05,NW,304,14.0,23.0,51,0.00,,,0.00,,2013-01-25 06:32:00,
2013-01-25 01:42:00,3.0,-11.0,30.05,NW,304,14.0,23.0,51,0.00,,,0.00,,2013-01-25 06:42:00,
2013-01-25 01:52:00,3.0,-11.0,30.05,West,277,10.0,19.0,51,0.00,,,0.00,,2013-01-25 06:52:00,
2013-01-25 02:02:00,3.0,-11.0,30.04,West,271,10.0,26.0,52,0.00,,,0.00,,2013-01-25 07:02:00,
2013-01-25 02:11:00,3.0,-11.0,30.04,West,271,10.0,26.0,52,0.00,,,0.00,,2013-01-25 07:11:00,
2013-01-25 02:22:00,3.0,-10.0,30.04,West,267,15.0,22.0,53,0.00,,,0.00,,2013-01-25 07:22:00,
2013-01-25 02:32:00,3.0,-10.0,30.05,West,272,14.0,25.0,54,0.00,,,0.00,,2013-01-25 07:32:00,
2013-01-25 02:42:00,3.0,-10.0,30.05,West,272,14.0,25.0,54,0.00,,,0.00,,2013-01-25 07:42:00,
2013-01-25 02:51:00,4.0,-9.0,30.05,NW,304,15.0,26.0,53,0.00,,,0.00,,2013-01-25 07:51:00,
2013-01-25 03:02:00,4.0,-9.0,30.05,WNW,292,17.0,28.0,54,0.00,,,0.00,,2013-01-25 08:02:00,
2013-01-25 03:12:00,4.0,-9.0,30.06,NW,309,15.0,27.0,53,0.00,,,0.00,,2013-01-25 08:12:00,
2013-01-25 03:21:00,4.0,-9.0,30.06,NW,309,15.0,27.0,53,0.00,,,0.00,,2013-01-25 08:21:00,
2013-01-25 03:32:00,4.0,-9.0,30.08,WNW,286,13.0,24.0,54,0.00,,,0.00,,2013-01-25 08:32:00,
2013-01-25 03:42:00,4.0,-9.0,30.08,WNW,286,13.0,24.0,54,0.00,,,0.00,,2013-01-25 08:42:00,
2013-01-25 03:52:00,4.0,-10.0,30.07,NW,304,19.0,27.0,52,0.00,,,0.00,,2013-01-25 08:52:00,
2013-01-25 04:02:00,4.0,-10.0,30.08,West,266,12.0,22.0,52,0.00,,,0.00,,2013-01-25 09:02:00,
2013-01-25 04:11:00,4.0,-10.0,30.08,West,266,12.0,22.0,52,0.00,,,0.00,,2013-01-25 09:11:00,
2013-01-25 04:21:00,4.0,-10.0,30.09,WNW,296,13.0,23.0,52,0.00,,,0.00,,2013-01-25 09:21:00,
2013-01-25 04:32:00,4.0,-10.0,30.09,WNW,288,15.0,22.0,52,0.00,,,0.00,,2013-01-25 09:32:00,
2013-01-25 04:42:00,4.0,-10.0,30.09,WNW,288,15.0,22.0,52,0.00,,,0.00,,2013-01-25 09:42:00,
2013-01-25 04:51:00,4.0,-9.0,30.09,West,271,14.0,20.0,54,0.00,,,0.00,,2013-01-25 09:51:00,
2013-01-25 05:02:00,4.0,-9.0,30.11,West,275,16.0,21.0,54,0.00,,,0.00,,2013-01-25 10:02:00,
2013-01-25 05:12:00,4.0,-9.0,30.10,WNW,301,6.0,21.0,54,0.00,,,0.00,,2013-01-25 10:12:00,
2013-01-25 05:21:00,4.0,-9.0,30.10,WNW,301,6.0,21.0,54,0.00,,,0.00,,2013-01-25 10:21:00,
2013-01-25 05:32:00,4.0,-9.0,30.10,NW,319,8.0,17.0,53,0.00,,,0.00,,2013-01-25 10:32:00,
2013-01-25 05:42:00,4.0,-9.0,30.10,NW,319,8.0,17.0,53,0.00,,,0.00,,2013-01-25 10:42:00,
2013-01-25 05:51:00,4.0,-9.0,30.10,WNW,286,10.0,16.0,54,0.00,,,0.00,,2013-01-25 10:51:00,
2013-01-25 06:03:00,5.0,-7.0,30.11,West,277,9.0,22.0,56,0.00,,,0.00,,2013-01-25 11:03:00,
2013-01-25 06:11:00,5.0,-7.0,30.11,West,277,9.0,22.0,56,0.00,,,0.00,,2013-01-25 11:11:00,
2013-01-25 06:22:00,5.0,-7.0,30.11,WNW,288,9.0,21.0,57,0.00,,,0.00,,2013-01-25 11:22:00,
2013-01-25 06:33:00,5.0,-7.0,30.11,WNW,287,8.0,19.0,57,0.00,,,0.00,,2013-01-25 11:33:00,
2013-01-25 06:42:00,5.0,-7.0,30.11,WNW,287,8.0,19.0,57,0.00,,,0.00,,2013-01-25 11:42:00,
2013-01-25 06:52:00,4.0,-7.0,30.11,WNW,282,12.0,19.0,58,0.00,,,0.00,,2013-01-25 11:52:00,
2013-01-25 07:03:00,5.0,-7.0,30.11,WNW,302,9.0,21.0,58,0.00,,,0.00,,2013-01-25 12:03:00,
2013-01-25 07:12:00,5.0,-7.0,30.11,WNW,302,9.0,21.0,58,0.00,,,0.00,,2013-01-25 12:12:00,
2013-01-25 07:22:00,5.0,-7.0,30.11,WNW,298,12.0,18.0,58,0.00,,,0.00,,2013-01-25 12:22:00,
2013-01-25 07:32:00,5.0,-7.0,30.12,NNW,333,16.0,30.0,57,0.00,,,0.00,,2013-01-25 12:32:00,
2013-01-25 07:42:00,5.0,-7.0,30.12,NNW,333,16.0,30.0,57,0.00,,,0.00,,2013-01-25 12:42:00,
2013-01-25 07:53:00,5.0,-7.0,30.13,West,271,12.0,19.0,57,0.00,,,0.00,,2013-01-25 12:53:00,
2013-01-25 08:03:00,6.0,-6.0,30.13,WNW,287,13.0,21.0,57,0.00,,,0.00,,2013-01-25 13:03:00,
2013-01-25 08:12:00,6.0,-6.0,30.13,WNW,287,13.0,21.0,57,0.00,,,0.00,,2013-01-25 13:12:00,
2013-01-25 08:22:00,6.0,-6.0,30.13,WNW,282,13.0,23.0,57,0.00,,,0.00,,2013-01-25 13:22:00,
2013-01-25 08:33:00,7.0,-6.0,30.13,WNW,288,13.0,22.0,55,0.00,,,0.00,,2013-01-25 13:33:00,
2013-01-25 08:42:00,7.0,-6.0,30.13,WNW,288,13.0,22.0,55,0.00,,,0.00,,2013-01-25 13:42:00,
2013-01-25 08:52:00,8.0,-5.0,30.14,NW,313,16.0,25.0,54,0.00,,,0.00,,2013-01-25 13:52:00,
2013-01-25 09:03:00,8.0,-6.0,30.14,WNW,283,16.0,26.0,53,0.00,,,0.00,,2013-01-25 14:03:00,
2013-01-25 09:12:00,8.0,-6.0,30.14,WNW,283,16.0,26.0,53,0.00,,,0.00,,2013-01-25 14:12:00,
2013-01-25 09:23:00,9.0,-5.0,30.14,NW,313,18.0,33.0,52,0.00,,,0.00,,2013-01-25 14:23:00,
2013-01-25 09:33:00,9.0,-6.0,30.14,WNW,296,17.0,30.0,50,0.00,,,0.00,,2013-01-25 14:33:00,
2013-01-25 09:42:00,9.0,-6.0,30.14,WNW,296,17.0,30.0,50,0.00,,,0.00,,2013-01-25 14:42:00,
2013-01-25 09:53:00,10.0,-4.0,30.14,West,267,16.0,30.0,52,0.00,,,0.00,,2013-01-25 14:53:00,
2013-01-25 10:03:00,11.0,-4.0,30.14,WNW,300,20.0,32.0,49,0.00,,,0.00,,2013-01-25 15:03:00,
2013-01-25 10:12:00,11.0,-4.0,30.14,WNW,300,20.0,32.0,49,0.00,,,0.00,,2013-01-25 15:12:00,
2013-01-25 10:22:00,11.0,-4.0,30.14,WNW,282,16.0,32.0,50,0.00,,,0.00,,2013-01-25 15:22:00,
2013-01-25 10:33:00,12.0,-3.0,30.14,WNW,291,18.0,27.0,49,0.00,,,0.00,,2013-01-25 15:33:00,
2013-01-25 10:42:00,12.0,-3.0,30.14,WNW,291,18.0,27.0,49,0.00,,,0.00,,2013-01-25 15:42:00,
2013-01-25 10:52:00,13.0,-4.0,30.14,NW,317,13.0,26.0,46,0.00,,,0.00,,2013-01-25 15:52:00,
2013-01-25 11:03:00,14.0,-4.0,30.13,NW,306,11.0,24.0,44,0.00,,,0.00,,2013-01-25 16:03:00,
2013-01-25 11:12:00,14.0,-4.0,30.13,NW,306,11.0,24.0,44,0.00,,,0.00,,2013-01-25 16:12:00,
2013-01-25 11:23:00,14.0,-4.0,30.12,West,279,15.0,25.0,44,0.00,,,0.00,,2013-01-25 16:23:00,
2013-01-25 11:33:00,16.0,-4.0,30.11,NW,307,10.0,18.0,40,0.00,,,0.00,,2013-01-25 16:33:00,
2013-01-25 11:43:00,16.0,-4.0,30.11,NW,307,10.0,18.0,40,0.00,,,0.00,,2013-01-25 16:43:00,
2013-01-25 11:52:00,16.0,-3.0,30.11,West,267,10.0,19.0,41,0.00,,,0.00,,2013-01-25 16:52:00,
2013-01-25 12:03:00,17.0,-6.0,30.11,NW,307,15.0,24.0,35,0.00,,,0.00,,2013-01-25 17:03:00,
2013-01-25 12:12:00,17.0,-6.0,30.11,NW,307,15.0,24.0,35,0.00,,,0.00,,2013-01-25 17:12:00,
2013-01-25 12:22:00,17.0,-5.0,30.11,NNW,335,14.0,23.0,37,0.00,,,0.00,,2013-01-25 17:22:00,
2013-01-25 12:33:00,18.0,-6.0,30.10,WNW,284,8.0,22.0,34,0.00,,,0.00,,2013-01-25 17:33:00,
2013-01-25 12:43:00,18.0,-6.0,30.10,WNW,284,8.0,22.0,34,0.00,,,0.00,,2013-01-25 17:43:00,
2013-01-25 12:52:00,18.0,-6.0,30.10,NW,326,14.0,25.0,34,0.00,,,0.00,,2013-01-25 17:52:00,
2013-01-25 13:03:00,19.0,-4.0,30.09,West,281,10.0,22.0,35,0.00,,,0.00,,2013-01-25 18:03:00,
2013-01-25 13:12:00,19.0,-4.0,30.09,West,281,10.0,22.0,35,0.00,,,0.00,,2013-01-25 18:12:00,
2013-01-25 13:23:00,19.0,-7.0,30.09,West,277,18.0,27.0,31,0.00,,,0.00,,2013-01-25 18:23:00,
2013-01-25 13:33:00,19.0,-6.0,30.09,WNW,295,13.0,22.0,32,0.00,,,0.00,,2013-01-25 18:33:00,
2013-01-25 13:42:00,19.0,-6.0,30.09,WNW,295,13.0,22.0,32,0.00,,,0.00,,2013-01-25 18:42:00,
2013-01-25 13:52:00,20.0,-5.0,30.09,West,274,10.0,19.0,32,0.00,,,0.00,,2013-01-25 18:52:00,
2013-01-25 14:03:00,20.0,-5.0,30.08,West,279,14.0,22.0,32,0.00,,,0.00,,2013-01-25 19:03:00,
2013-01-25 14:12:00,20.0,-5.0,30.08,West,279,14.0,22.0,32,0.00,,,0.00,,2013-01-25 19:12:00,
2013-01-25 14:22:00,20.0,-4.0,30.08,WNW,285,14.0,23.0,33,0.00,,,0.00,,2013-01-25 19:22:00,
2013-01-25 14:33:00,20.0,-4.0,30.08,NW,316,9.0,19.0,33,0.00,,,0.00,,2013-01-25 19:33:00,
2013-01-25 14:42:00,20.0,-4.0,30.08,NW,316,9.0,19.0,33,0.00,,,0.00,,2013-01-25 19:42:00,
2013-01-25 14:52:00,20.0,-6.0,30.08,WNW,298,13.0,20.0,31,0.00,,,0.00,,2013-01-25 19:52:00,
2013-01-25 15:03:00,21.0,-4.0,30.09,WNW,283,8.0,15.0,32,0.00,,,0.00,,2013-01-25 20:03:00,
2013-01-25 15:12:00,21.0,-4.0,30.09,WNW,283,8.0,15.0,32,0.00,,,0.00,,2013-01-25 20:12:00,
2013-01-25 15:23:00,21.0,-4.0,30.09,West,270,6.0,15.0,33,0.00,,,0.00,,2013-01-25 20:23:00,
2013-01-25 15:32:00,21.0,-2.0,30.09,West,270,11.0,20.0,36,0.00,,,0.00,,2013-01-25 20:32:00,
2013-01-25 15:42:00,21.0,-2.0,30.09,West,270,11.0,20.0,36,0.00,,,0.00,,2013-01-25 20:42:00,
2013-01-25 15:52:00,20.0,-1.0,30.09,WNW,283,9.0,17.0,38,0.00,,,0.00,,2013-01-25 20:52:00,
2013-01-25 16:02:00,19.0,-2.0,30.09,WNW,291,11.0,16.0,39,0.00,,,0.00,,2013-01-25 21:02:00,
2013-01-25 16:12:00,19.0,-2.0,30.09,WNW,291,11.0,16.0,39,0.00,,,0.00,,2013-01-25 21:12:00,
2013-01-25 16:23:00,19.0,-2.0,30.09,WNW,291,9.0,14.0,38,0.00,,,0.00,,2013-01-25 21:23:00,
2013-01-25 16:33:00,18.0,-2.0,30.09,WNW,302,6.0,14.0,40,0.00,,,0.00,,2013-01-25 21:33:00,
2013-01-25 16:42:00,18.0,-2.0,30.09,WNW,302,6.0,14.0,40,0.00,,,0.00,,2013-01-25 21:42:00,
2013-01-25 16:52:00,18.0,-2.0,30.10,WNW,291,6.0,12.0,40,0.00,,,0.00,,2013-01-25 21:52:00,
2013-01-25 17:03:00,17.0,-3.0,30.09,West,281,6.0,10.0,41,0.00,,,0.00,,2013-01-25 22:03:00,
2013-01-25 17:12:00,17.0,-3.0,30.09,West,281,6.0,10.0,41,0.00,,,0.00,,2013-01-25 22:12:00,
2013-01-25 17:22:00,17.0,-2.0,30.09,NW,313,7.0,12.0,42,0.00,,,0.00,,2013-01-25 22:22:00,
2013-01-25 17:33:00,16.0,-3.0,30.11,West,278,8.0,13.0,42,0.00,,,0.00,,2013-01-25 22:33:00,
2013-01-25 17:42:00,16.0,-3.0,30.11,West,278,8.0,13.0,42,0.00,,,0.00,,2013-01-25 22:42:00,
2013-01-25 17:52:00,16.0,-3.0,30.11,WNW,288,7.0,14.0,42,0.00,,,0.00,,2013-01-25 22:52:00,
2013-01-25 18:02:00,16.0,-2.0,30.10,WNW,300,7.0,12.0,43,0.00,,,0.00,,2013-01-25 23:02:00,
2013-01-25 18:12:00,16.0,-2.0,30.10,WNW,300,7.0,12.0,43,0.00,,,0.00,,2013-01-25 23:12:00,
2013-01-25 18:22:00,16.0,-2.0,30.10,WNW,284,7.0,10.0,44,0.00,,,0.00,,2013-01-25 23:22:00,
2013-01-25 18:32:00,15.0,-2.0,30.10,WNW,300,5.0,9.0,46,0.00,,,0.00,,2013-01-25 23:32:00,
2013-01-25 18:42:00,15.0,-2.0,30.10,WNW,300,5.0,9.0,46,0.00,,,0.00,,2013-01-25 23:42:00,
2013-01-25 18:52:00,14.0,-2.0,30.10,WNW,294,6.0,9.0,48,0.00,,,0.00,,2013-01-25 23:52:00,
2013-01-25 19:02:00,14.0,-2.0,30.11,WNW,295,6.0,8.0,49,0.00,,,0.00,,2013-01-26 00:02:00,
2013-01-25 19:11:00,14.0,-2.0,30.11,WNW,295,6.0,8.0,49,0.00,,,0.00,,2013-01-26 00:11:00,
2013-01-25 19:22:00,14.0,-1.0,30.11,WNW,291,4.0,9.0,50,0.00,,,0.00,,2013-01-26 00:22:00,
2013-01-25 19:32:00,15.0,-1.0,30.11,West,280,7.0,14.0,49,0.00,,,0.00,,2013-01-26 00:32:00,
2013-01-25 19:42:00,15.0,-1.0,30.11,West,280,7.0,14.0,49,0.00,,,0.00,,2013-01-26 00:42:00,
2013-01-25 19:53:00,15.0,-2.0,30.11,WNW,286,9.0,13.0,47,0.00,,,0.00,,2013-01-26 00:53:00,
2013-01-25 20:02:00,15.0,-1.0,30.11,West,273,8.0,12.0,48,0.00,,,0.00,,2013-01-26 01:02:00,
2013-01-25 20:12:00,15.0,-1.0,30.11,West,273,8.0,12.0,48,0.00,,,0.00,,2013-01-26 01:12:00,
2013-01-25 20:22:00,15.0,-1.0,30.11,WNW,293,5.0,11.0,48,0.00,,,0.00,,2013-01-26 01:22:00,
2013-01-25 20:32:00,15.0,-1.0,30.10,WNW,303,6.0,9.0,49,0.00,,,0.00,,2013-01-26 01:32:00,
2013-01-25 20:42:00,15.0,-1.0,30.10,WNW,303,6.0,9.0,49,0.00,,,0.00,,2013-01-26 01:42:00,
2013-01-25 20:52:00,15.0,-1.0,30.10,NW,314,5.0,10.0,48,0.00,,,0.00,,2013-01-26 01:52:00,
2013-01-25 21:02:00,15.0,-2.0,30.10,NW,311,3.0,10.0,47,0.00,,,0.00,,2013-01-26 02:02:00,
2013-01-25 21:11:00,15.0,-2.0,30.10,NW,311,3.0,10.0,47,0.00,,,0.00,,2013-01-26 02:11:00,
2013-01-25 21:22:00,14.0,-2.0,30.09,WNW,293,4.0,9.0,47,0.00,,,0.00,,2013-01-26 02:22:00,
2013-01-25 21:32:00,14.0,-3.0,30.08,NNW,327,4.0,10.0,46,0.00,,,0.00,,2013-01-26 02:32:00,
2013-01-25 21:42:00,14.0,-3.0,30.08,NNW,327,4.0,10.0,46,0.00,,,0.00,,2013-01-26 02:42:00,
2013-01-25 21:52:00,14.0,-2.0,30.08,NNW,336,2.0,7.0,49,0.00,,,0.00,,2013-01-26 02:52:00,
2013-01-25 22:02:00,14.0,-2.0,30.07,NW,323,3.0,6.0,49,0.00,,,0.00,,2013-01-26 03:02:00,
2013-01-25 22:12:00,14.0,-2.0,30.07,NW,323,3.0,6.0,49,0.00,,,0.00,,2013-01-26 03:12:00,
2013-01-25 22:22:00,14.0,-2.0,30.07,NW,315,5.0,8.0,47,0.00,,,0.00,,2013-01-26 03:22:00,
2013-01-25 22:32:00,13.0,-3.0,30.07,NNW,347,3.0,7.0,47,0.00,,,0.00,,2013-01-26 03:32:00,
2013-01-25 22:43:00,13.0,-3.0,30.07,NNW,347,3.0,7.0,47,0.00,,,0.00,,2013-01-26 03:43:00,
2013-01-25 22:52:00,13.0,-3.0,30.07,NNW,347,4.0,8.0,47,0.00,,,0.00,,2013-01-26 03:52:00,
2013-01-25 23:02:00,13.0,-3.0,30.08,NW,325,2.0,6.0,47,0.00,,,0.00,,2013-01-26 04:02:00,
2013-01-25 23:12:00,13.0,-3.0,30.08,NW,325,2.0,6.0,47,0.00,,,0.00,,2013-01-26 04:12:00,
2013-01-25 23:21:00,13.0,-4.0,30.08,NW,324,6.0,9.0,46,0.00,,,0.00,,2013-01-26 04:21:00,
2013-01-25 23:32:00,13.0,-4.0,30.08,NNW,348,3.0,7.0,46,0.00,,,0.00,,2013-01-26 04:32:00,
2013-01-25 23:42:00,13.0,-4.0,30.08,NNW,348,3.0,7.0,46,0.00,,,0.00,,2013-01-26 04:42:00,
2013-01-25 23:52:00,12.0,-5.0,30.08,NNW,346,4.0,8.0,46,0.00,,,0.00,,2013-01-26 04:52:00,